Weather History for KSTC - March, 2013

Change the Weather History Date:

Tuesday, March 12, 2013

  Actual Average Record
Temperature  
Mean Temperature 22 °F 28 °F  
Max Temperature 29 °F 37 °F 67 °F (1990)
Min Temperature 15 °F 18 °F -15 °F (2009)
Degree Days  
Heating Degree Days 43 38  
Month to date heating degree days 519 480  
Since 1 July heating degree days 6789 6926  
Cooling Degree Days 0 0  
Month to date cooling degree days 0 0  
Year to date cooling degree days 0 0  
Moisture  
Dew Point 12 °F    
Average Humidity 60    
Maximum Humidity 77    
Minimum Humidity 42    
Precipitation  
Precipitation T in 0.04 in 0.61 in (1990)
Month to date precipitation 1.53 0.48  
Year to date precipitation 3.31 1.72  
Snow  
Snow T in 0.30 in 6.00 in (1901)
Month to date snowfall 9.4 4.0  
Since 1 July snowfall 46.9 38.2  
Snow Depth 13.00 in    
Sea Level Pressure  
Sea Level Pressure 30.03 in    
Wind  
Wind Speed 13 mph (NW)    
Max Wind Speed 24 mph    
Max Gust Speed 30 mph    
Visibility 10 miles    
Events Snow    
T = Trace of Precipitation, MM = Missing Value Source: NWS Daily Summary

Daily Weather History Graph

Daily Weather History Graph

Search for Another Location

Airport or City:

Trip Planner

Search our weather history database for the weather conditions in past years. The results will help you decide how hot, cold, wet, or windy it might be!

Date:

Astronomy

Mar. 12, 2013 Rise Set
Actual Time 7:33 AM CDT 7:18 PM CDT
Civil Twilight 7:04 AM CDT 7:48 PM CDT
Nautical Twilight 6:30 AM CDT 8:22 PM CDT
Astronomical Twilight 5:55 AM CDT 8:57 PM CDT
Moon 7:36 AM CDT (3/12) 8:40 PM CDT (3/12)
Length of Visible Light 12h 43m
Length of Day
11h 44m
New Moon, 1% of the Moon is Illuminated
Mar 12
New Moon
Mar 19
First Quarter
Mar 27
Full
Apr 2
Last Quarter
Apr 10
New

Hourly Weather History & Observations

Time (CDT) Temp. Windchill Dew Point Humidity Pressure Visibility Wind Dir Wind Speed Gust Speed Precip Events Conditions
12:53 AM 21.9 °F 14.5 °F 15.1 °F 75% 29.89 in 10.0 mi WNW 5.8 mph - N/A   Overcast
1:53 AM 21.9 °F 11.7 °F 12.0 °F 66% 29.88 in 10.0 mi WNW 9.2 mph - N/A   Overcast
2:53 AM 21.9 °F 12.5 °F 12.0 °F 66% 29.89 in 10.0 mi West 8.1 mph - N/A   Overcast
3:53 AM 21.0 °F 9.9 °F 12.0 °F 68% 29.89 in 10.0 mi WNW 10.4 mph - N/A   Overcast
4:53 AM 21.0 °F 9.9 °F 12.9 °F 71% 29.90 in 10.0 mi WNW 10.4 mph - N/A   Overcast
5:53 AM 21.0 °F 11.4 °F 12.9 °F 71% 29.92 in 10.0 mi NW 8.1 mph - N/A   Overcast
6:53 AM 19.9 °F 8.6 °F 12.9 °F 74% 29.94 in 10.0 mi NW 10.4 mph - N/A   Overcast
7:53 AM 19.0 °F 9.0 °F 12.0 °F 74% 29.96 in 10.0 mi NNW 8.1 mph - N/A   Overcast
8:53 AM 19.0 °F 6.8 °F 10.9 °F 71% 29.98 in 10.0 mi NW 11.5 mph - N/A   Clear
9:53 AM 19.9 °F 7.3 °F 14.0 °F 78% 30.00 in 5.0 mi NW 12.7 mph - 0.00 in Snow Light Snow
10:53 AM 23.0 °F 11.1 °F 15.1 °F 72% 30.01 in 10.0 mi NNW 12.7 mph - 0.00 in   Mostly Cloudy
11:07 AM 24.8 °F 13.4 °F 15.8 °F 69% 29.94 in 7.0 mi NW 12.7 mph 21.9 mph N/A   Overcast
11:53 AM 24.1 °F 10.6 °F 16.0 °F 71% 30.03 in 10.0 mi NW 17.3 mph - 0.00 in   Mostly Cloudy
12:53 PM 26.1 °F 13.6 °F 15.1 °F 63% 30.04 in 10.0 mi NW 16.1 mph - N/A   Overcast
1:07 PM 26.6 °F 13.4 °F 15.8 °F 64% 29.96 in 10.0 mi NW 18.4 mph - N/A   Overcast
1:33 PM 26.6 °F 14.3 °F 15.8 °F 64% 29.96 in 10.0 mi NW 16.1 mph 25.3 mph N/A   Overcast
1:53 PM 26.1 °F 12.0 °F 15.1 °F 63% 30.04 in 7.0 mi NW 20.7 mph 24.2 mph 0.00 in Snow Light Snow
2:53 PM 27.0 °F 13.5 °F 15.1 °F 61% 30.04 in 10.0 mi NW 19.6 mph 27.6 mph 0.00 in   Overcast
3:53 PM 28.0 °F 14.3 °F 12.9 °F 53% 30.05 in 10.0 mi NW 21.9 mph 26.5 mph N/A   Overcast
4:53 PM 28.0 °F 15.3 °F 9.0 °F 45% 30.08 in 10.0 mi NNW 18.4 mph 25.3 mph N/A   Mostly Cloudy
5:53 PM 27.0 °F 14.7 °F 8.1 °F 45% 30.12 in 10.0 mi North 16.1 mph 23.0 mph N/A   Partly Cloudy
6:53 PM 25.0 °F 13.1 °F 9.0 °F 51% 30.14 in 10.0 mi North 13.8 mph 20.7 mph N/A   Partly Cloudy
7:53 PM 23.0 °F 12.4 °F 8.1 °F 53% 30.18 in 10.0 mi NNW 10.4 mph - N/A   Clear
8:53 PM 18.0 °F 6.9 °F 7.0 °F 62% 30.22 in 10.0 mi NW 9.2 mph - N/A   Clear
9:53 PM 19.0 °F 5.6 °F 10.9 °F 71% 30.24 in 10.0 mi NW 13.8 mph - N/A   Clear
10:53 PM 18.0 °F 3.6 °F 10.9 °F 74% 30.26 in 10.0 mi NW 15.0 mph - N/A   Clear
11:53 PM 17.1 °F 4.3 °F 10.9 °F 77% 30.28 in 10.0 mi NW 11.5 mph - N/A   Clear